TimeCST,TemperatureF,Dew PointF,Humidity,Sea Level PressureIn,VisibilityMPH,Wind Direction,Wind SpeedMPH,Gust SpeedMPH,PrecipitationIn,Events,Conditions,WindDirDegrees,DateUTC
12:55 AM,45.1,38.7,78,29.85,10.0,NW,9.2,-,N/A,,Clear,320,2012-12-07 06:55:00
1:55 AM,44.2,37.4,77,29.85,10.0,NW,11.5,-,N/A,,Clear,320,2012-12-07 07:55:00
2:55 AM,43.0,36.7,78,29.86,10.0,NNW,9.2,-,N/A,,Clear,330,2012-12-07 08:55:00
3:55 AM,41.9,34.5,75,29.85,10.0,NNW,6.9,-,N/A,,Clear,330,2012-12-07 09:55:00
4:55 AM,41.4,34.7,77,29.85,10.0,NW,5.8,-,N/A,,Clear,310,2012-12-07 10:55:00
5:55 AM,41.2,34.5,77,29.85,10.0,NNW,6.9,-,N/A,,Clear,340,2012-12-07 11:55:00
6:55 AM,41.7,34.5,76,29.88,10.0,Calm,Calm,-,N/A,,Partly Cloudy,0,2012-12-07 12:55:00
7:55 AM,40.8,33.6,76,29.89,10.0,NW,6.9,-,N/A,,Clear,310,2012-12-07 13:55:00
8:55 AM,42.1,34.0,73,29.89,10.0,NNW,12.7,-,N/A,,Clear,330,2012-12-07 14:55:00
9:55 AM,44.1,34.0,68,29.91,10.0,NW,11.5,-,0.00,,Clear,320,2012-12-07 15:55:00
10:55 AM,46.0,34.7,65,29.91,10.0,NNW,9.2,-,N/A,,Mostly Cloudy,330,2012-12-07 16:55:00
11:55 AM,50.0,36.7,60,29.88,10.0,NNW,8.1,-,N/A,,Clear,340,2012-12-07 17:55:00
12:55 PM,51.8,37.6,58,29.85,10.0,NNW,4.6,-,N/A,,Clear,330,2012-12-07 18:55:00
1:55 PM,55.4,38.7,53,29.82,10.0,West,3.5,-,N/A,,Clear,280,2012-12-07 19:55:00
2:55 PM,56.3,40.1,55,29.81,10.0,West,5.8,-,N/A,,Clear,260,2012-12-07 20:55:00
3:55 PM,58.1,40.8,53,29.80,10.0,Variable,3.5,-,N/A,,Clear,0,2012-12-07 21:55:00
4:55 PM,56.3,41.9,59,29.82,10.0,SSW,3.5,-,N/A,,Clear,210,2012-12-07 22:55:00
5:55 PM,50.7,40.3,67,29.83,10.0,SSW,5.8,-,N/A,,Clear,200,2012-12-07 23:55:00
6:55 PM,48.7,40.1,72,29.86,10.0,WSW,3.5,-,N/A,,Clear,240,2012-12-08 00:55:00
7:55 PM,41.0,36.7,85,29.88,10.0,ENE,5.8,-,N/A,,Clear,60,2012-12-08 01:55:00
8:55 PM,39.4,36.0,88,29.91,10.0,ENE,5.8,-,N/A,,Clear,60,2012-12-08 02:55:00
9:55 PM,39.0,36.1,89,29.92,10.0,NNE,10.4,-,N/A,,Clear,20,2012-12-08 03:55:00
10:55 PM,41.5,39.6,93,29.92,10.0,NNE,10.4,-,N/A,,Clear,30,2012-12-08 04:55:00
11:55 PM,40.1,39.6,98,29.93,10.0,NNE,9.2,-,N/A,,Clear,30,2012-12-08 05:55:00